Location: Unspecified
(0.0000°N, 0.0000°E)
Time: 09:17:46
(UTC+00:00)

STARLINK-2040 - Pass Details

Date: 31 October 2025
Orbit: 474 x 476 km, 53.2° (Epoch: 29 March)

Event Time Altitude Azimuth Distance (km) Brightness Sun altitude
Rises 17:10:39 0° 237° (WSW) 2,511 8.6 8.0°
Reaches altitude 10° 17:13:10 10° 254° (WSW) 1,631 9.6 7.4°
Maximum altitude 17:16:00 21° 304° (NW) 1,108 5.9 6.7°
Drops below altitude 10° 17:18:49 10° 355° (N) 1,625 6.0 6.0°
Enters shadow 17:27:01 -15° 25° (NNE) 4,679 8.0 4.0°
